Cape Town, South Africa

6:10 AM SAST on May 29, 2015 (GMT +0200)
Cape Town International | | Change Station
CLOSE
Current Station
Airport
Location: Cape Town,
Elevation: 138 ft
Nearby Weather Stations

Elev 138 ft 33.96 °S, 18.60 °E | Updated 10 minutes ago

Partly Cloudy
Partly Cloudy
57 °F
Feels Like 57 °F
N
10
Wind Variable Wind from NNW

Today
High -- | Low -- °F
--% Chance of Precip.
Yesterday
High -- | Low -- °F
Precip. -- in
7:40 AM 5:45 PM
Waxing Gibbous, 81% visible
Pressure 29.89 in
Visibility 6.2 miles
Clouds Few 1000 ft
Dew Point 54 °F
Humidity 88%
Rainfall 0.00 in
Snow Depth Not available.
UV 0 out of 12
Pollen Not available.
Air Quality Not available.
Flu Activity Not available.
METAR FACT 290400Z 34009KT 9999 FEW010 14/12 Q1012 NOSIG

More Conditions Fewer Conditions

Pressure 29.89 in
Visibility 6.2 miles
Clouds Few 1000 ft
Dew Point 54 °F
Humidity 88%
Rainfall 0.00 in
Snow Depth Not available.
UV 0 out of 12
Pollen Not available.
Air Quality Not available.
Flu Activity Not available.
METAR FACT 290400Z 34009KT 9999 FEW010 14/12 Q1012 NOSIG

More Conditions Fewer Conditions

10-Day Weather Forecast

Almanac

Astronomy

May. 29, 2015 Rise Set
Actual Time
Civil Twilight
Nautical Twilight
Astronomical Twilight
Moon
Length of Visible Light
Length of Day
Tomorrow will be .
, % of the Moon is Illuminated

Today's Extremes

Country Highs Country Lows

Community

WunderPhotos

Upload Photos

1,825,188 photos uploaded!

WunderBlogs® & News

Nearby

Air Quality

  Air Quality AQ Index Pollutant
Not available.

Snow Depth

Station Depth Elevation

Earthquake Activity

City Distance Mag. Time & Date
Minimum magnitude displayed is 2.5.

Coastal Water Temperatures

Place Temperature

Stations

Nearby Weather Stations

Station Location Temp. Windchill Dew Point Humidity Wind Precip. Elev Updated Type